[[{"header":{"parameterUnit":"m.s-1","parameterCategory":2,"la1":30.2991,"la2":30.254,"lo1":-89.0895,"lo2":-89.0444,"dy":0.0017,"dx":0.0017,"nx":28,"ny":28,"refTime":"2024-06-10T09:00:00:Z","depth":"0","parameterNumber":2,"parameterNumberName":"U-component_of_CURRENTS"},"data":[0,0,0,0,0,0,0,0,0,0,0,0,0,0,0,0,0,0,0,0,0,0,0,0,0,0,0,0,0,0,0,0,0,0,0,0,0,0,0,0,0,0,0,0,0,0,0,0,0,0,0,0,0,0,0,0,0,0,-0.3187,-0.3188,0,-0.327,-0.3271,-0.3271,-0.3261,-0.326,-0.3259,-0.3258,-0.3164,-0.3163,-0.3161,0,0,0,0,0,0,0,0,0,0,0,0,0,-0.304,-0.3042,-0.3187,-0.3188,-0.319,-0.327,-0.3271,-0.3271,-0.3261,-0.326,-0.3259,-0.3258,-0.3165,-0.3163,-0.3161,0,0,0,0,0,0,0,0,0,0,0,0,0,-0.3107,-0.3043,-0.3187,-0.3198,-0.32,-0.327,-0.3271,-0.3272,-0.3261,-0.326,-0.3259,-0.3257,-0.3166,-0.3163,-0.3161,-0.3174,0,0,-0.3153,-0.3152,0,0,0,0,0,0,0,0,-0.3103,-0.3112,-0.3195,-0.3197,-0.32,-0.3258,-0.3185,-0.3232,-0.3262,-0.3233,-0.3258,-0.3257,-0.3183,-0.3179,-0.3194,-0.3169,-0.3165,-0.3153,-0.3152,-0.3151,-0.315,0,0,0,0,0,0,0,-0.3099,-0.3109,-0.3215,-0.3196,-0.32,-0.3206,-0.3213,-0.3194,-0.3208,-0.3236,-0.3236,-0.3253,-0.3182,-0.3197,-0.3191,-0.3164,-0.3153,-0.3151,-0.3149,-0.3149,-0.314,-0.3141,0,0,0,0,0,0,-0.3099,-0.3105,-0.3213,-0.3218,-0.3152,-0.321,-0.3218,-0.3237,-0.3212,-0.321,-0.3254,-0.3253,-0.3202,-0.3194,-0.3188,-0.323,-0.3151,-0.3148,-0.3147,-0.3138,-0.314,-0.3141,0,0,0,0,0,0,-0.3095,-0.3108,-0.3209,-0.3166,-0.318,-0.3214,-0.3236,-0.3239,-0.3246,-0.3229,-0.3222,-0.3256,-0.32,-0.3191,-0.318,-0.3225,-0.3147,-0.3145,-0.3137,-0.3139,-0.3141,-0.3296,0,0,0,0,0,0,-0.3091,-0.3106,-0.3116,-0.3167,-0.3183,-0.3265,-0.3238,-0.3242,-0.3261,-0.3259,-0.3229,-0.3219,-0.3198,-0.3184,-0.3178,-0.322,-0.3143,-0.3135,-0.3138,-0.314,-0.3289,-0.3303,-0.3315,0,0,0,0,0,-0.3085,-0.3101,-0.3116,-0.3129,-0.3197,-0.3267,-0.3276,-0.3291,-0.3262,-0.3286,-0.3258,-0.322,-0.3194,-0.3184,-0.3176,-0.3218,-0.3134,-0.3137,-0.314,-0.3284,-0.33,-0.3314,0,0,0,0,0,0,-0.3031,-0.3104,-0.312,-0.3154,-0.3216,-0.3267,-0.328,-0.3291,-0.3291,-0.3271,-0.3237,-0.3228,-0.3236,-0.3197,-0.3187,-0.3219,-0.3157,-0.3158,-0.3269,-0.3284,-0.3296,-0.3287,-0.3141,0,0,0,0,0,-0.3031,-0.3067,-0.3139,-0.3169,-0.3193,-0.3234,-0.3259,-0.328,-0.3293,-0.3291,-0.3279,-0.3251,-0.3245,-0.3239,-0.3223,-0.324,-0.3225,-0.3258,-0.3271,-0.3282,-0.3267,-0.3288,-0.3302,-0.315,-0.315,-0.315,0,0,-0.302,-0.3063,-0.3084,-0.3161,-0.3194,-0.3253,-0.3243,-0.3288,-0.3335,-0.3277,-0.3309,-0.3291,-0.3256,-0.3286,-0.3286,-0.3259,-0.333,-0.3286,-0.3296,-0.3274,-0.3293,-0.3308,-0.3321,-0.3152,-0.3152,-0.3152,0,0,-0.3009,-0.3052,-0.3074,-0.3143,-0.3213,-0.3255,-0.3269,-0.3331,-0.3351,-0.3394,-0.3363,-0.3378,-0.3361,-0.3374,-0.3367,-0.3432,-0.3392,-0.3416,-0.3481,-0.3504,-0.3517,-0.3528,-0.3587,-0.3602,-0.3428,-0.3429,-0.3429,0,-0.298,-0.3031,-0.3093,-0.3147,-0.3201,-0.3256,-0.3304,-0.3355,-0.341,-0.3442,-0.3414,-0.3446,-0.3413,-0.347,-0.3481,-0.3467,-0.3467,-0.3436,-0.3524,-0.3534,-0.3542,-0.3599,-0.3614,-0.3436,-0.3435,-0.3435,-0.3434,0,-0.3001,-0.3053,-0.3073,-0.3164,-0.3241,-0.3291,-0.3388,-0.3448,-0.3472,-0.3529,-0.3592,-0.358,-0.3596,-0.3603,-0.3549,-0.3606,-0.3587,-0.354,-0.3493,-0.3568,-0.3623,-0.3635,-0.3448,-0.3445,-0.3442,-0.344,0,0,-0.2864,-0.3046,-0.3042,-0.3128,-0.3253,-0.3332,-0.3419,-0.3529,-0.3613,-0.3663,-0.3758,-0.3754,-0.3755,-0.3742,-0.3716,-0.3728,-0.3803,-0.3646,-0.3643,-0.372,-0.3875,-0.3776,-0.378,-0.3762,-0.3763,-0.3764,-0.3911,0,-0.2833,-0.294,-0.3041,-0.3172,-0.3244,-0.3375,-0.3474,-0.3601,-0.3689,-0.3806,-0.3832,-0.3898,-0.3811,-0.3829,-0.383,-0.3796,-0.383,-0.3768,-0.3774,-0.3775,-0.3691,-0.3788,-0.3356,-0.344,-0.3923,-0.3925,-0.3926,0,-0.2767,-0.2876,-0.2973,-0.322,-0.3263,-0.3359,-0.3562,-0.3673,-0.3849,-0.3913,-0.3995,-0.4026,-0.4065,-0.3974,-0.3986,-0.3942,-0.3904,-0.3887,-0.3892,-0.3739,-0.3697,-0.3428,-0.3443,-0.3358,-0.3944,-0.3943,-0.3942,0,-0.2611,-0.2819,-0.2901,-0.2983,-0.3254,-0.3337,-0.3479,-0.3681,-0.3798,-0.3983,-0.4062,-0.4146,-0.4167,-0.4145,-0.4085,-0.4033,-0.4105,-0.4045,-0.3951,-0.3947,-0.3545,-0.3501,-0.3473,-0.4062,-0.4062,-0.4062,-0.4061,0,-0.251,-0.2595,-0.2853,-0.2912,-0.3107,-0.3292,-0.3486,-0.3643,-0.3835,-0.3966,-0.4088,-0.417,-0.419,-0.4234,-0.4169,-0.4103,-0.4179,-0.3977,-0.3972,-0.3593,-0.3554,-0.3429,-0.3472,-0.4067,-0.4066,-0.4065,-0.4064,0,-0.2321,-0.2463,-0.2626,-0.2913,-0.3032,-0.3169,-0.3505,-0.3633,-0.3805,-0.397,-0.4016,-0.4188,-0.4222,-0.4271,-0.4274,-0.4193,-0.4051,-0.4128,-0.3709,-0.3649,-0.3438,-0.3505,-0.3527,-0.3458,-0.405,-0.4048,-0.4047,0,-0.2249,-0.2281,-0.2603,-0.2744,-0.2883,-0.3137,-0.3302,-0.3575,-0.3702,-0.3951,-0.3993,-0.4124,-0.4093,-0.4139,-0.4029,-0.3971,-0.3989,-0.3658,-0.3464,-0.3386,-0.3459,-0.352,-0.3466,-0.3029,-0.3019,-0.3011,-0.3005,0,-0.2132,-0.2204,-0.2359,-0.2607,-0.2815,-0.3068,-0.3307,-0.3395,-0.3655,-0.3723,-0.3764,-0.3745,-0.377,-0.3488,-0.3516,-0.3461,-0.347,-0.3497,-0.3476,-0.2716,-0.2713,-0.2651,-0.3047,-0.2935,-0.2942,-0.2947,-0.2951,-0.2953,-0.2048,-0.2109,-0.2259,-0.2492,-0.2718,-0.2872,-0.2937,-0.3118,-0.3196,-0.3156,-0.3337,-0.31,-0.2959,-0.2844,-0.2856,-0.27,-0.2967,-0.2553,-0.2672,-0.2771,-0.2586,-0.2879,-0.2722,-0.2727,-0.2732,-0.2736,-0.274,0,-0.1928,-0.1979,-0.2155,-0.2363,-0.2441,-0.2645,-0.2835,-0.2768,-0.2668,-0.2638,-0.2498,-0.2158,-0.1913,-0.1955,-0.1857,-0.1807,-0.1794,-0.1895,-0.1795,-0.1806,-0.2035,-0.1858,-0.1428,-0.1428,-0.1428,-0.1428,-0.1428,-0.1428,-0.1868,-0.19,-0.1954,-0.2002,-0.2114,-0.2076,-0.2087,-0.2008,-0.1925,-0.1602,-0.1362,-0.1266,-0.1388,-0.1435,-0.1363,-0.1336,-0.1404,-0.1331,-0.1656,-0.1679,-0.1746,-0.1811,-0.1649,-0.1181,-0.1182,-0.1137,-0.1137,-0.1137]},{"header":{"parameterUnit":"m.s-1","parameterCategory":2,"la1":30.2991,"la2":30.254,"lo1":-89.0895,"lo2":-89.0444,"dy":0.0017,"dx":0.0017,"nx":28,"ny":28,"refTime":"2024-06-10T09:00:00:Z","depth":"0","parameterNumber":3,"parameterNumberName":"V-component_of_CURRENTS"},"data":[0,0,0,0,0,0,0,0,0,0,0,0,0,0,0,0,0,0,0,0,0,0,0,0,0,0,0,0,0,0,0,0,0,0,0,0,0,0,0,0,0,0,0,0,0,0,0,0,0,0,0,0,0,0,0,0,0,0,-0.029,-0.0288,0,-0.0102,-0.0099,-0.0097,-0.0006,-0.0006,-0.0006,-0.0006,0.0187,0.0192,0.0197,0,0,0,0,0,0,0,0,0,0,0,0,0,-0.0455,-0.0454,-0.029,-0.0288,-0.0285,-0.0102,-0.0099,-0.0097,-0.0006,-0.0006,-0.0006,-0.0006,0.0185,0.0192,0.0198,0,0,0,0,0,0,0,0,0,0,0,0,0,-0.0336,-0.0453,-0.029,-0.0219,-0.0211,-0.0103,-0.0099,-0.0096,-0.0006,-0.0006,-0.0006,-0.0006,0.0183,0.0191,0.0199,0.0252,0,0,0.0223,0.0226,0,0,0,0,0,0,0,0,-0.0343,-0.033,-0.0232,-0.0223,-0.0214,-0.0078,-0.0087,0.002,-0.0006,-0.0082,-0.0006,-0.0006,0.0098,0.0113,0.015,0.0261,0.0269,0.0224,0.0228,0.0232,0.0234,0,0,0,0,0,0,0,-0.0352,-0.0337,-0.0214,-0.0229,-0.0218,-0.0157,-0.0141,-0.0065,0.0008,-0.0076,-0.0069,-0.005,0.0103,0.0143,0.0156,0.0272,0.0223,0.023,0.0235,0.0238,0.0406,0.0406,0,0,0,0,0,0,-0.0383,-0.0346,-0.022,-0.0209,-0.0282,-0.0154,-0.0136,-0.0121,0.0007,0.0026,-0.005,-0.0046,0.0129,0.0146,0.0163,0.0195,0.0232,0.0239,0.0244,0.0406,0.0406,0.0406,0,0,0,0,0,0,-0.0387,-0.0374,-0.0228,-0.0274,-0.0251,-0.0152,-0.0135,-0.0117,-0.0082,0.0027,0.0046,-0.0034,0.013,0.0152,0.0221,0.0205,0.0243,0.025,0.0407,0.0406,0.0406,0.0285,0,0,0,0,0,0,-0.0393,-0.0376,-0.0376,-0.0276,-0.0249,-0.0179,-0.0134,-0.0113,-0.007,-0.0064,0.0047,0.0065,0.0131,0.0208,0.0229,0.0216,0.0256,0.0407,0.0406,0.0406,0.0289,0.028,0.0272,0,0,0,0,0,-0.0399,-0.0401,-0.0377,-0.0362,-0.0252,-0.018,-0.0161,-0.009,-0.007,-0.0059,0.0015,0.0061,0.0219,0.0215,0.0239,0.0228,0.0407,0.0406,0.0406,0.0293,0.0282,0.0273,0,0,0,0,0,0,-0.0469,-0.0389,-0.0361,-0.0337,-0.0272,-0.0165,-0.0147,-0.0099,-0.0029,-0.0025,0.007,0.0094,0.0143,0.0207,0.02,0.0274,0.0316,0.032,0.0222,0.0213,0.0205,0.0184,0.0263,0,0,0,0,0,-0.0486,-0.047,-0.0381,-0.0364,-0.0338,-0.0246,-0.0208,-0.0159,-0.0083,-0.0053,0.0023,0.01,0.0162,0.0201,0.0269,0.0321,0.0347,0.0326,0.0318,0.031,0.031,0.0325,0.0317,0.0403,0.0403,0.0403,0,0,-0.051,-0.0463,-0.0454,-0.0378,-0.0323,-0.0286,-0.0224,-0.0176,-0.0145,-0.0042,0.0012,0.0076,0.0168,0.0218,0.0245,0.0268,0.0296,0.0309,0.0302,0.0307,0.0324,0.0315,0.0307,0.0403,0.0403,0.0403,0,0,-0.0547,-0.0509,-0.0507,-0.0456,-0.0381,-0.0322,-0.0317,-0.0219,-0.0182,-0.0116,-0.0048,0.0004,0.0115,0.017,0.0213,0.0204,0.0248,0.0221,0.0171,0.0184,0.0176,0.017,0.0167,0.0162,0.022,0.022,0.022,0,-0.0576,-0.0562,-0.0495,-0.0472,-0.0444,-0.0349,-0.034,-0.0277,-0.0169,-0.0157,-0.0118,0.0008,0.0091,0.0136,0.0141,0.0184,0.0192,0.0196,0.017,0.0165,0.016,0.0159,0.0155,0.0214,0.0215,0.0215,0.0216,0,-0.0598,-0.0591,-0.0587,-0.0533,-0.0492,-0.047,-0.0382,-0.0349,-0.0298,-0.0239,-0.0192,-0.0081,-0.0014,0.0019,0.009,0.0098,0.0111,0.0149,0.0185,0.0144,0.0146,0.0143,0.0206,0.0208,0.021,0.0211,0,0,-0.0655,-0.0617,-0.0613,-0.063,-0.053,-0.0514,-0.0468,-0.0421,-0.0427,-0.0322,-0.0336,-0.0198,-0.0154,-0.0101,-0.0021,0.0014,-0.0002,0.0068,0.0071,0.0047,0.0006,0.0134,0.0144,0.0022,0.0021,0.0021,0.001,0,-0.0698,-0.0712,-0.066,-0.0683,-0.0693,-0.0611,-0.059,-0.0533,-0.0474,-0.0462,-0.0361,-0.0322,-0.0195,-0.0177,-0.0124,-0.003,-0.001,-0.0003,0.0068,0.007,0.0174,0.0146,0.0227,0.0235,0.0008,0.0007,0.0007,0,-0.0719,-0.0746,-0.0776,-0.0807,-0.0805,-0.0794,-0.0785,-0.0745,-0.0681,-0.0643,-0.0577,-0.0496,-0.0411,-0.0317,-0.018,-0.0186,-0.01,-0.0025,-0.0024,0.0142,0.0195,0.0249,0.024,0.0387,0.0004,0.0004,0.0004,0,-0.0797,-0.0827,-0.0877,-0.0871,-0.0869,-0.0889,-0.0876,-0.081,-0.0811,-0.0752,-0.0762,-0.0645,-0.0602,-0.0469,-0.0263,-0.024,-0.0138,-0.0095,0.0091,0.0099,0.021,0.0231,0.0344,-0.0031,-0.0031,-0.0031,-0.0031,0,-0.0843,-0.089,-0.0937,-0.0958,-0.1072,-0.1,-0.107,-0.1031,-0.0993,-0.102,-0.0864,-0.086,-0.0636,-0.053,-0.0349,-0.0122,-0.0203,0.008,0.0112,0.0171,0.0188,0.0359,0.0406,-0.0032,-0.0032,-0.0032,-0.0031,0,-0.0886,-0.09,-0.1001,-0.1066,-0.1102,-0.1173,-0.1214,-0.1259,-0.1176,-0.121,-0.1197,-0.1045,-0.0848,-0.0619,-0.0408,-0.0226,0.0078,0.0058,0.0116,0.016,0.0518,0.0554,0.0686,0.0775,0.0258,0.0261,0.0264,0,-0.0904,-0.0946,-0.1099,-0.1207,-0.1245,-0.1343,-0.1411,-0.1363,-0.1387,-0.1314,-0.1349,-0.1166,-0.0967,-0.0587,-0.0252,0.0084,0.0188,0.0312,0.0406,0.0555,0.0617,0.0623,0.0687,0.0475,0.0479,0.0483,0.0485,0,-0.0962,-0.1011,-0.1117,-0.1333,-0.1462,-0.1589,-0.1659,-0.1694,-0.1621,-0.1547,-0.1412,-0.1227,-0.0841,-0.0366,0.0065,0.0251,0.0446,0.0397,0.0528,0.0791,0.0824,0.0919,0.0442,0.0516,0.0513,0.0511,0.0509,0.0508,-0.1024,-0.1136,-0.1279,-0.149,-0.1643,-0.1759,-0.178,-0.178,-0.1716,-0.1458,-0.1395,-0.0937,-0.0437,0.0253,0.0424,0.0819,0.0736,0.0959,0.098,0.0962,0.1102,0.0706,0.085,0.0849,0.0848,0.0847,0.0846,0,-0.1094,-0.1219,-0.1425,-0.1642,-0.1779,-0.1829,-0.1892,-0.1795,-0.1617,-0.1292,-0.0982,-0.027,0.0293,0.0713,0.1217,0.1398,0.1391,0.1446,0.1451,0.1483,0.1118,0.1188,0.1442,0.1442,0.1442,0.1442,0.1442,0.1442,-0.1147,-0.1325,-0.1439,-0.1695,-0.1812,-0.1849,-0.1828,-0.1622,-0.1343,-0.0687,-0.0147,0.0223,0.0699,0.138,0.1803,0.1824,0.1932,0.1902,0.1946,0.1686,0.1641,0.1598,0.1677,0.203,0.2031,0.2312,0.2315,0.2318]}],[{"header":{"parameterUnit":"m.s-1","parameterCategory":2,"la1":30.2991,"la2":30.254,"lo1":-89.0895,"lo2":-89.0444,"dy":0.0017,"dx":0.0017,"nx":28,"ny":28,"refTime":"2024-06-10T09:00:00:Z","depth":"2","parameterNumber":2,"parameterNumberName":"U-component_of_CURRENTS"},"data":[0,0,0,0,0,0,0,0,0,0,0,0,0,0,0,0,0,0,0,0,0,0,0,0,0,0,0,0,0,0,0,0,0,0,0,0,0,0,0,0,0,0,0,0,0,0,0,0,0,0,0,0,0,0,0,0,0,0,-0.2774,-0.2777,0,-0.2959,-0.2961,-0.2962,-0.3021,-0.302,-0.302,-0.302,-0.2977,-0.2976,-0.2975,0,0,0,0,0,0,0,0,0,0,0,0,0,-0.2559,-0.2562,-0.2774,-0.2777,-0.278,-0.2959,-0.2961,-0.2963,-0.3021,-0.302,-0.302,-0.302,-0.2977,-0.2976,-0.2975,0,0,0,0,0,0,0,0,0,0,0,0,0,-0.2682,-0.2563,-0.2774,-0.2836,-0.2844,-0.2959,-0.2961,-0.2963,-0.3021,-0.302,-0.302,-0.302,-0.2978,-0.2976,-0.2975,-0.2973,0,0,-0.2971,-0.297,0,0,0,0,0,0,0,0,-0.2675,-0.2689,-0.2824,-0.2832,-0.2841,-0.2973,-0.287,-0.2958,-0.3021,-0.2946,-0.302,-0.302,-0.2959,-0.296,-0.2988,-0.2971,-0.2969,-0.2971,-0.297,-0.2969,-0.2969,0,0,0,0,0,0,0,-0.2666,-0.2682,-0.284,-0.2827,-0.2838,-0.2886,-0.2901,-0.2888,-0.2942,-0.2952,-0.2959,-0.2991,-0.2962,-0.299,-0.2987,-0.2968,-0.2971,-0.2969,-0.2969,-0.2968,-0.2922,-0.2922,0,0,0,0,0,0,-0.2654,-0.2674,-0.2834,-0.2846,-0.2764,-0.289,-0.2907,-0.2925,-0.2948,-0.2955,-0.2991,-0.2993,-0.2992,-0.2989,-0.2985,-0.2953,-0.2969,-0.2968,-0.2967,-0.2923,-0.2922,-0.2922,0,0,0,0,0,0,-0.2649,-0.2666,-0.2827,-0.2771,-0.2795,-0.2894,-0.2914,-0.2929,-0.2971,-0.2981,-0.2982,-0.302,-0.2992,-0.2987,-0.2981,-0.2953,-0.2967,-0.2966,-0.2923,-0.2923,-0.2922,-0.2907,0,0,0,0,0,0,-0.2641,-0.2662,-0.2667,-0.2769,-0.2799,-0.2895,-0.2916,-0.2933,-0.2994,-0.2999,-0.3005,-0.3001,-0.2991,-0.2983,-0.298,-0.2951,-0.2965,-0.2924,-0.2923,-0.2922,-0.2908,-0.2906,-0.2904,0,0,0,0,0,-0.2632,-0.264,-0.2666,-0.2686,-0.2802,-0.2896,-0.2914,-0.2979,-0.2996,-0.3014,-0.3018,-0.3002,-0.2975,-0.2983,-0.2978,-0.2948,-0.2924,-0.2923,-0.2922,-0.2909,-0.2906,-0.2904,0,0,0,0,0,0,-0.2549,-0.2651,-0.268,-0.2717,-0.2802,-0.2908,-0.2937,-0.2986,-0.3012,-0.3012,-0.3007,-0.3003,-0.2964,-0.2975,-0.2983,-0.2934,-0.2942,-0.294,-0.2933,-0.2931,-0.2929,-0.2921,-0.2964,0,0,0,0,0,-0.2535,-0.2578,-0.2674,-0.2716,-0.2744,-0.2842,-0.2888,-0.2943,-0.299,-0.3005,-0.3018,-0.3008,-0.2958,-0.2964,-0.2928,-0.2931,-0.2971,-0.2906,-0.2904,-0.2903,-0.2894,-0.2898,-0.2896,-0.2919,-0.2919,-0.2919,0,0,-0.2521,-0.2587,-0.261,-0.2704,-0.2767,-0.2779,-0.2866,-0.2947,-0.2949,-0.2989,-0.2988,-0.2987,-0.2949,-0.2923,-0.2911,-0.2937,-0.294,-0.2902,-0.29,-0.2892,-0.2897,-0.2895,-0.2893,-0.2919,-0.2919,-0.2919,0,0,-0.2507,-0.2562,-0.2577,-0.263,-0.2734,-0.2773,-0.2793,-0.2902,-0.2936,-0.296,-0.2951,-0.293,-0.2934,-0.2881,-0.285,-0.2818,-0.2902,-0.2847,-0.2863,-0.2867,-0.2865,-0.2864,-0.3013,-0.3025,-0.288,-0.288,-0.288,0,-0.2483,-0.2509,-0.26,-0.2616,-0.2647,-0.275,-0.275,-0.2787,-0.2887,-0.2911,-0.2945,-0.2917,-0.2874,-0.2801,-0.2807,-0.2799,-0.2914,-0.2872,-0.2865,-0.2864,-0.2862,-0.3015,-0.3027,-0.2879,-0.2879,-0.2879,-0.2879,0,-0.2466,-0.248,-0.2496,-0.2524,-0.2563,-0.2602,-0.2655,-0.2703,-0.2758,-0.2804,-0.2803,-0.2792,-0.2785,-0.2768,-0.2783,-0.276,-0.2888,-0.2836,-0.2871,-0.2859,-0.3022,-0.3036,-0.2878,-0.2878,-0.2878,-0.2879,0,0,-0.2399,-0.2468,-0.2461,-0.2474,-0.2525,-0.2566,-0.2552,-0.2589,-0.2635,-0.2678,-0.2731,-0.2627,-0.2703,-0.2674,-0.2701,-0.2732,-0.283,-0.2837,-0.2837,-0.2991,-0.3019,-0.2801,-0.2798,-0.2833,-0.2833,-0.2833,-0.3175,0,-0.2348,-0.2358,-0.2393,-0.2376,-0.2378,-0.2452,-0.2459,-0.2512,-0.2584,-0.2668,-0.2645,-0.2686,-0.264,-0.2717,-0.2705,-0.2816,-0.2855,-0.2752,-0.3003,-0.3012,-0.2817,-0.2795,-0.2431,-0.2675,-0.3189,-0.3191,-0.3193,0,-0.2275,-0.2307,-0.2289,-0.2353,-0.2362,-0.2362,-0.2441,-0.2476,-0.2571,-0.2654,-0.2677,-0.2736,-0.2764,-0.2743,-0.2851,-0.284,-0.2914,-0.2984,-0.2997,-0.279,-0.2809,-0.2748,-0.2681,-0.3216,-0.3214,-0.3212,-0.3211,0,-0.2188,-0.2213,-0.2207,-0.2221,-0.23,-0.2325,-0.2373,-0.2473,-0.2564,-0.2683,-0.2805,-0.2812,-0.2928,-0.2941,-0.3051,-0.3018,-0.3239,-0.3172,-0.3033,-0.3029,-0.2748,-0.2711,-0.3189,-0.3189,-0.3188,-0.3187,-0.3186,0,-0.2107,-0.2097,-0.2182,-0.2185,-0.2231,-0.2305,-0.2402,-0.2469,-0.263,-0.2739,-0.2812,-0.2914,-0.3,-0.3128,-0.3143,-0.3154,-0.3281,-0.3029,-0.305,-0.2741,-0.2702,-0.3159,-0.3151,-0.32,-0.3197,-0.3194,-0.3192,0,-0.201,-0.2051,-0.2067,-0.2157,-0.2194,-0.224,-0.2428,-0.2521,-0.2686,-0.2849,-0.2908,-0.3095,-0.3211,-0.3286,-0.3415,-0.3294,-0.3305,-0.3266,-0.2968,-0.2934,-0.3105,-0.3093,-0.3144,-0.3138,-0.3133,-0.3129,-0.3125,0,-0.1962,-0.1959,-0.2047,-0.2087,-0.213,-0.2241,-0.2336,-0.2517,-0.2633,-0.2912,-0.298,-0.3188,-0.3136,-0.3264,-0.3137,-0.3093,-0.3266,-0.2819,-0.2516,-0.3058,-0.3078,-0.3073,-0.3068,-0.2257,-0.2246,-0.2238,-0.2231,0,-0.1884,-0.1916,-0.1951,-0.203,-0.211,-0.2217,-0.2363,-0.2437,-0.266,-0.2757,-0.2837,-0.2803,-0.2874,-0.2598,-0.261,-0.2539,-0.2761,-0.2631,-0.3292,-0.2245,-0.2223,-0.2241,-0.2266,-0.2155,-0.2163,-0.2168,-0.2172,-0.2175,-0.1829,-0.1841,-0.1891,-0.1945,-0.2042,-0.2101,-0.2108,-0.224,-0.2299,-0.2316,-0.2462,-0.2275,-0.2313,-0.1964,-0.1949,-0.2008,-0.2155,-0.2081,-0.2108,-0.2144,-0.1899,-0.1857,-0.1692,-0.1696,-0.17,-0.1704,-0.1707,0,-0.1731,-0.1748,-0.1804,-0.1842,-0.1862,-0.1967,-0.205,-0.1986,-0.1888,-0.1888,-0.177,-0.1472,-0.1238,-0.1398,-0.1233,-0.1213,-0.1232,-0.1281,-0.1274,-0.1343,-0.1407,-0.1126,-0.0715,-0.0714,-0.0713,-0.0712,0,0,-0.1677,-0.1663,-0.1673,-0.162,-0.1648,-0.1578,-0.1542,-0.1439,-0.1369,-0.1126,-0.098,-0.0922,-0.1075,-0.0787,-0.0795,-0.0718,-0.1031,-0.0692,-0.1451,-0.1491,-0.1553,-0.1798,-0.1432,0,0,0,0,0]},{"header":{"parameterUnit":"m.s-1","parameterCategory":2,"la1":30.2991,"la2":30.254,"lo1":-89.0895,"lo2":-89.0444,"dy":0.0017,"dx":0.0017,"nx":28,"ny":28,"refTime":"2024-06-10T09:00:00:Z","depth":"2","parameterNumber":3,"parameterNumberName":"V-component_of_CURRENTS"},"data":[0,0,0,0,0,0,0,0,0,0,0,0,0,0,0,0,0,0,0,0,0,0,0,0,0,0,0,0,0,0,0,0,0,0,0,0,0,0,0,0,0,0,0,0,0,0,0,0,0,0,0,0,0,0,0,0,0,0,-0.025,-0.0248,0,-0.0045,-0.0043,-0.004,0.006,0.006,0.006,0.0059,0.0247,0.0252,0.0258,0,0,0,0,0,0,0,0,0,0,0,0,0,-0.0387,-0.0386,-0.025,-0.0248,-0.0245,-0.0046,-0.0042,-0.0039,0.006,0.006,0.006,0.0059,0.0246,0.0252,0.0258,0,0,0,0,0,0,0,0,0,0,0,0,0,-0.0268,-0.0385,-0.025,-0.0173,-0.0164,-0.0046,-0.0042,-0.0039,0.006,0.006,0.006,0.0059,0.0244,0.0251,0.0259,0.0315,0,0,0.0283,0.0286,0,0,0,0,0,0,0,0,-0.0275,-0.0262,-0.0187,-0.0178,-0.0168,-0.002,-0.0022,0.0078,0.006,-0.0022,0.0059,0.0059,0.0155,0.017,0.0213,0.0323,0.0332,0.0284,0.0288,0.0292,0.0294,0,0,0,0,0,0,0,-0.0283,-0.027,-0.0166,-0.0184,-0.0173,-0.0092,-0.0076,-0.0001,0.0067,-0.0015,-0.0008,0.0011,0.016,0.0205,0.0218,0.0334,0.0283,0.029,0.0295,0.0298,0.0498,0.0499,0,0,0,0,0,0,-0.0322,-0.0278,-0.0173,-0.016,-0.0226,-0.009,-0.0072,-0.0066,0.0067,0.0087,0.0011,0.0015,0.0192,0.0209,0.0225,0.0304,0.0292,0.0299,0.0303,0.0498,0.0498,0.0499,0,0,0,0,0,0,-0.0326,-0.0315,-0.0181,-0.0216,-0.0193,-0.0089,-0.008,-0.0061,-0.0019,0.0087,0.0106,0.0032,0.0192,0.0214,0.029,0.0311,0.0303,0.031,0.0497,0.0498,0.0499,0.0458,0,0,0,0,0,0,-0.0331,-0.0318,-0.0321,-0.0219,-0.0193,-0.0114,-0.008,-0.0057,-0.0008,-0.0001,0.0112,0.0129,0.0194,0.0277,0.0297,0.0322,0.0316,0.0496,0.0497,0.0498,0.0459,0.0458,0.0457,0,0,0,0,0,-0.0336,-0.0342,-0.0322,-0.0309,-0.0203,-0.0114,-0.0092,-0.0016,-0.0007,0.0018,0.0087,0.0125,0.0298,0.0284,0.0308,0.0335,0.0496,0.0497,0.0498,0.0459,0.0458,0.0457,0,0,0,0,0,0,-0.0395,-0.033,-0.0306,-0.029,-0.0211,-0.0098,-0.0076,-0.0024,0.0053,0.0049,0.0141,0.0164,0.0241,0.0288,0.027,0.0394,0.0401,0.0407,0.0363,0.0363,0.0362,0.0331,0.0322,0,0,0,0,0,-0.0414,-0.0408,-0.0318,-0.0303,-0.0278,-0.0181,-0.0137,-0.0083,-0.0003,0.0031,0.0108,0.0185,0.0268,0.031,0.0388,0.0456,0.0477,0.0485,0.0484,0.0483,0.0473,0.0551,0.0556,0.0504,0.0504,0.0503,0,0,-0.0433,-0.0396,-0.0391,-0.0316,-0.026,-0.0201,-0.0155,-0.0098,-0.0045,0.0038,0.0114,0.0188,0.0285,0.0367,0.0404,0.0407,0.0498,0.0485,0.0483,0.0473,0.0553,0.0558,0.0563,0.0504,0.0504,0.0504,0,0,-0.0459,-0.0441,-0.0438,-0.0377,-0.0298,-0.0228,-0.0219,-0.0113,-0.0071,0.0018,0.0086,0.0176,0.029,0.0379,0.0434,0.0473,0.0492,0.048,0.0455,0.0531,0.0536,0.054,0.0522,0.0526,0.0478,0.0478,0.0478,0,-0.0482,-0.0464,-0.0417,-0.0384,-0.034,-0.0249,-0.0213,-0.0143,-0.0021,-0.0,0.003,0.0223,0.0309,0.0424,0.0432,0.0476,0.0471,0.0452,0.0529,0.0534,0.054,0.0521,0.0526,0.0476,0.0476,0.0477,0.0477,0,-0.0484,-0.0467,-0.0462,-0.0395,-0.0339,-0.0295,-0.02,-0.0156,-0.0099,-0.0025,0.0081,0.0221,0.0323,0.0377,0.0418,0.0499,0.0463,0.0519,0.0528,0.0542,0.0521,0.0526,0.0474,0.0474,0.0475,0.0475,0,0,-0.0543,-0.048,-0.0476,-0.0459,-0.0346,-0.0304,-0.0244,-0.0164,-0.0148,-0.0009,0.0044,0.0217,0.0267,0.0332,0.0418,0.0495,0.0527,0.0497,0.0502,0.0468,0.0604,0.0679,0.0691,0.0581,0.0583,0.0585,0.0554,0,-0.0556,-0.0526,-0.0475,-0.0431,-0.041,-0.0328,-0.0286,-0.0207,-0.0134,-0.0063,0.0089,0.0176,0.0259,0.0299,0.0397,0.0513,0.0545,0.0524,0.0604,0.0604,0.0664,0.0704,0.0625,0.0601,0.0559,0.056,0.0561,0,-0.0565,-0.0551,-0.0528,-0.0486,-0.0473,-0.0433,-0.0382,-0.0322,-0.0215,-0.0171,-0.0049,0.0056,0.0208,0.0272,0.0465,0.0433,0.0485,0.0572,0.0574,0.0666,0.0694,0.0593,0.0613,0.057,0.0569,0.0568,0.0568,0,-0.063,-0.0583,-0.058,-0.0554,-0.0487,-0.0492,-0.0453,-0.0373,-0.0353,-0.0244,-0.0221,-0.0022,0.0068,0.0224,0.04,0.041,0.0586,0.0636,0.0739,0.074,0.0704,0.0702,0.0724,0.0725,0.0725,0.0725,0.0725,0,-0.0656,-0.0653,-0.0628,-0.0623,-0.0655,-0.0574,-0.0592,-0.0545,-0.0468,-0.0452,-0.029,-0.0224,0.0055,0.02,0.0356,0.057,0.0549,0.0732,0.0765,0.0683,0.068,0.0693,0.069,0.0723,0.0724,0.0724,0.0724,0,-0.0717,-0.0686,-0.0701,-0.0683,-0.0688,-0.0714,-0.0701,-0.0707,-0.0639,-0.0605,-0.058,-0.0385,-0.0175,0.0081,0.0333,0.05,0.0705,0.0753,0.0599,0.062,0.0796,0.079,0.0884,0.0887,0.0889,0.0892,0.0893,0,-0.0737,-0.075,-0.0778,-0.0823,-0.0827,-0.0856,-0.0881,-0.081,-0.0793,-0.0701,-0.0673,-0.0491,-0.0282,0.0128,0.0408,0.0699,0.0715,0.0772,0.0842,0.0803,0.0825,0.0816,0.0807,0.0723,0.0723,0.0723,0.0723,0,-0.0796,-0.0815,-0.0849,-0.0955,-0.1004,-0.1033,-0.104,-0.1033,-0.0944,-0.0873,-0.0719,-0.0541,-0.0187,0.0179,0.0529,0.068,0.0755,0.0791,0.0801,0.0735,0.0662,0.068,0.0675,0.0725,0.0725,0.0725,0.0725,0.0725,-0.086,-0.0925,-0.0997,-0.1091,-0.1144,-0.1167,-0.1164,-0.1102,-0.1023,-0.0815,-0.0707,-0.0369,-0.0129,0.047,0.0634,0.0778,0.082,0.0881,0.0875,0.087,0.0898,0.084,0.0932,0.0933,0.0934,0.0935,0.0935,0,-0.0932,-0.1011,-0.1124,-0.1214,-0.1269,-0.1273,-0.1235,-0.1152,-0.0992,-0.0741,-0.0489,-0.0148,0.0216,0.0457,0.0693,0.0863,0.0799,0.0876,0.0755,0.0753,0.0751,0.0769,0.0771,0.0771,0.0771,0.0771,0,0,-0.098,-0.1104,-0.117,-0.1295,-0.1343,-0.1353,-0.1303,-0.1106,-0.088,-0.0536,-0.0246,0.0081,0.0328,0.0476,0.0602,0.0702,0.069,0.0694,0.0808,0.0644,0.0641,0.0734,0.0759,0,0,0,0,0]}],[{"header":{"parameterUnit":"m.s-1","parameterCategory":2,"la1":30.2991,"la2":30.254,"lo1":-89.0895,"lo2":-89.0444,"dy":0.0017,"dx":0.0017,"nx":28,"ny":28,"refTime":"2024-06-10T09:00:00:Z","depth":"4","parameterNumber":2,"parameterNumberName":"U-component_of_CURRENTS"},"data":[0,0,0,0,0,0,0,0,0,0,0,0,0,0,0,0,0,0,0,0,0,0,0,0,0,0,0,0,0,0,0,0,0,0,0,0,0,0,0,0,0,0,0,0,0,0,0,0,0,0,0,0,0,0,0,0,0,0,-0.1153,-0.1151,0,-0.0949,-0.0946,-0.0943,-0.0849,-0.085,-0.0852,-0.0853,-0.087,-0.0869,-0.0869,0,0,0,0,0,0,0,0,0,0,0,0,0,-0.1355,-0.1352,-0.1153,-0.1151,-0.1149,-0.095,-0.0946,-0.0942,-0.0849,-0.0851,-0.0852,-0.0853,-0.087,-0.0869,-0.0869,0,0,0,0,0,0,0,0,0,0,0,0,0,-0.1212,-0.1351,-0.1153,-0.1086,-0.1079,-0.0951,-0.0946,-0.0941,-0.0849,-0.0851,-0.0852,-0.0854,-0.087,-0.0869,-0.0869,-0.0832,0,0,-0.0866,-0.0866,0,0,0,0,0,0,0,0,-0.1221,-0.1204,-0.1098,-0.1091,-0.1082,-0.0935,-0.1024,-0.0919,-0.0849,-0.0926,-0.0853,-0.0854,-0.0917,-0.0913,-0.0854,-0.0832,-0.0833,-0.0866,-0.0866,-0.0865,-0.0865,0,0,0,0,0,0,0,-0.1231,-0.1212,-0.1062,-0.1096,-0.1087,-0.1031,-0.1012,-0.1001,-0.0912,-0.0919,-0.0914,-0.0907,-0.0914,-0.0854,-0.0854,-0.0833,-0.0866,-0.0865,-0.0865,-0.0865,-0.0934,-0.0936,0,0,0,0,0,0,-0.1278,-0.1221,-0.1069,-0.1057,-0.1168,-0.1027,-0.1006,-0.0973,-0.0907,-0.0899,-0.0906,-0.0903,-0.0855,-0.0855,-0.0855,-0.0888,-0.0865,-0.0865,-0.0864,-0.0931,-0.0934,-0.0937,0,0,0,0,0,0,-0.1283,-0.1266,-0.1077,-0.1144,-0.1118,-0.1024,-0.0986,-0.0968,-0.0916,-0.0896,-0.0891,-0.0876,-0.0856,-0.0856,-0.0883,-0.0887,-0.0864,-0.0863,-0.0929,-0.0932,-0.0935,-0.0905,0,0,0,0,0,0,-0.1289,-0.1268,-0.1271,-0.1146,-0.1116,-0.0971,-0.0985,-0.0963,-0.0914,-0.0908,-0.0869,-0.087,-0.0858,-0.0884,-0.0882,-0.0885,-0.0863,-0.0926,-0.093,-0.0934,-0.0903,-0.0907,-0.0911,0,0,0,0,0,-0.1296,-0.1275,-0.1271,-0.1254,-0.1118,-0.0969,-0.0944,-0.0879,-0.0911,-0.0847,-0.0886,-0.0872,-0.0911,-0.0885,-0.0882,-0.0884,-0.0924,-0.0929,-0.0934,-0.0902,-0.0907,-0.0911,0,0,0,0,0,0,-0.1352,-0.1261,-0.1254,-0.1206,-0.1093,-0.0957,-0.0936,-0.0884,-0.0851,-0.0906,-0.0884,-0.0886,-0.0913,-0.0918,-0.0889,-0.0928,-0.0922,-0.0927,-0.0899,-0.0903,-0.0907,-0.094,-0.0862,0,0,0,0,0,-0.1374,-0.1342,-0.1225,-0.1185,-0.1156,-0.1053,-0.1002,-0.095,-0.0905,-0.0888,-0.0876,-0.0909,-0.0925,-0.0932,-0.0941,-0.0948,-0.0956,-0.0961,-0.0964,-0.0967,-0.0999,-0.0988,-0.0992,-0.0954,-0.0954,-0.0954,0,0,-0.139,-0.1339,-0.1322,-0.1198,-0.1141,-0.108,-0.1023,-0.0954,-0.092,-0.0909,-0.0911,-0.0917,-0.0935,-0.0947,-0.0961,-0.0952,-0.0986,-0.0973,-0.0974,-0.1006,-0.0993,-0.0996,-0.0999,-0.0957,-0.0957,-0.0956,0,0,-0.1395,-0.1365,-0.1345,-0.1264,-0.1184,-0.1115,-0.1099,-0.0986,-0.0958,-0.093,-0.0956,-0.0966,-0.0963,-0.0969,-0.0978,-0.1014,-0.1007,-0.1033,-0.1063,-0.105,-0.1052,-0.1054,-0.1069,-0.1072,-0.1029,-0.1029,-0.1029,0,-0.1438,-0.1381,-0.1305,-0.1264,-0.1238,-0.1142,-0.1114,-0.1047,-0.0957,-0.0976,-0.0948,-0.0982,-0.097,-0.1009,-0.1024,-0.1014,-0.1031,-0.1027,-0.1049,-0.1051,-0.1053,-0.1068,-0.1072,-0.1028,-0.1028,-0.1029,-0.1029,0,-0.1402,-0.1383,-0.1368,-0.1309,-0.1251,-0.1204,-0.1129,-0.1103,-0.1088,-0.1033,-0.1055,-0.1019,-0.1044,-0.1029,-0.1031,-0.1062,-0.1077,-0.1047,-0.1021,-0.1054,-0.107,-0.1074,-0.1027,-0.1028,-0.1028,-0.1028,0,0,-0.1439,-0.1369,-0.1372,-0.1368,-0.1288,-0.1227,-0.1233,-0.1184,-0.1213,-0.113,-0.1145,-0.1133,-0.1118,-0.1133,-0.1117,-0.1098,-0.1097,-0.1091,-0.1091,-0.108,-0.1105,-0.1057,-0.1057,-0.1068,-0.1068,-0.1069,-0.1108,0,-0.1449,-0.1415,-0.1377,-0.136,-0.1338,-0.1307,-0.13,-0.1267,-0.1243,-0.1227,-0.1192,-0.1187,-0.1152,-0.1158,-0.1137,-0.111,-0.1111,-0.1093,-0.1102,-0.1104,-0.1032,-0.1061,-0.1072,-0.1111,-0.1112,-0.1113,-0.1113,0,-0.1419,-0.1407,-0.1408,-0.1405,-0.1404,-0.1383,-0.1415,-0.139,-0.1375,-0.136,-0.1356,-0.1318,-0.1298,-0.1236,-0.1211,-0.1207,-0.1184,-0.1145,-0.1144,-0.112,-0.1064,-0.1078,-0.1121,-0.1121,-0.112,-0.112,-0.1119,0,-0.1444,-0.1429,-0.145,-0.1436,-0.141,-0.1444,-0.1441,-0.1445,-0.1442,-0.1441,-0.1435,-0.1414,-0.1377,-0.1341,-0.1274,-0.1249,-0.1238,-0.1176,-0.1123,-0.112,-0.1161,-0.1159,-0.1182,-0.1182,-0.1182,-0.1182,-0.1182,0,-0.1432,-0.1446,-0.1464,-0.1457,-0.1484,-0.1477,-0.1506,-0.1515,-0.1518,-0.1516,-0.1498,-0.1482,-0.1401,-0.1375,-0.1319,-0.1246,-0.1276,-0.1155,-0.1127,-0.1151,-0.1148,-0.1164,-0.1161,-0.1183,-0.1183,-0.1183,-0.1182,0,-0.1413,-0.1431,-0.1443,-0.1471,-0.1476,-0.1492,-0.1499,-0.1505,-0.1541,-0.1539,-0.1535,-0.1524,-0.1477,-0.1421,-0.1354,-0.1291,-0.1228,-0.121,-0.1284,-0.1257,-0.1112,-0.1108,-0.1132,-0.1131,-0.1129,-0.1128,-0.1128,0,-0.1382,-0.1393,-0.1442,-0.1442,-0.1448,-0.1464,-0.1454,-0.1487,-0.1488,-0.1554,-0.1537,-0.1534,-0.1506,-0.1363,-0.1337,-0.125,-0.1222,-0.1218,-0.1127,-0.1137,-0.1108,-0.1105,-0.1103,-0.1126,-0.1125,-0.1125,-0.1125,0,-0.1329,-0.1377,-0.1391,-0.1388,-0.1387,-0.1375,-0.138,-0.1372,-0.1421,-0.1492,-0.1463,-0.1429,-0.1387,-0.1301,-0.1263,-0.12,-0.1221,-0.1205,-0.1205,-0.1119,-0.1129,-0.1101,-0.11,-0.1121,-0.1121,-0.1122,-0.1122,0,-0.1293,-0.1299,-0.1326,-0.1302,-0.1306,-0.1259,-0.1275,-0.1253,-0.1255,-0.1344,-0.1348,-0.1345,-0.1377,-0.1282,-0.1253,-0.1181,-0.1125,-0.1073,-0.1079,-0.1083,-0.1046,-0.105,-0.1011,0,0,0,0,0,-0.1235,-0.1226,-0.1218,-0.1186,-0.119,-0.1178,-0.1203,-0.1227,-0.1305,-0.124,-0.1281,-0.1237,-0.1178,-0.119,-0.1088,-0.1224,-0.1134,-0.1109,-0.1079,-0.1098,-0.1103,-0.1061,0,0,0,0,0,0,-0.119,-0.1204,-0.1186,-0.1079,-0.104,-0.1014,-0.1021,-0.1078,-0.1037,-0.1138,-0.108,-0.1185,-0.1107,-0.1194,-0.1067,-0.1071,-0.1032,-0.113,-0.1127,-0.1096,-0.11,-0.1104,-0.1062,0,0,0,0,0]},{"header":{"parameterUnit":"m.s-1","parameterCategory":2,"la1":30.2991,"la2":30.254,"lo1":-89.0895,"lo2":-89.0444,"dy":0.0017,"dx":0.0017,"nx":28,"ny":28,"refTime":"2024-06-10T09:00:00:Z","depth":"4","parameterNumber":3,"parameterNumberName":"V-component_of_CURRENTS"},"data":[0,0,0,0,0,0,0,0,0,0,0,0,0,0,0,0,0,0,0,0,0,0,0,0,0,0,0,0,0,0,0,0,0,0,0,0,0,0,0,0,0,0,0,0,0,0,0,0,0,0,0,0,0,0,0,0,0,0,-0.0315,-0.0316,0,-0.042,-0.0422,-0.0423,-0.0476,-0.0476,-0.0475,-0.0475,-0.0458,-0.0458,-0.0457,0,0,0,0,0,0,0,0,0,0,0,0,0,-0.0281,-0.0281,-0.0315,-0.0316,-0.0317,-0.042,-0.0422,-0.0424,-0.0476,-0.0476,-0.0475,-0.0475,-0.0458,-0.0458,-0.0457,0,0,0,0,0,0,0,0,0,0,0,0,0,-0.0336,-0.0281,-0.0315,-0.0352,-0.0356,-0.0419,-0.0422,-0.0424,-0.0476,-0.0476,-0.0475,-0.0474,-0.0458,-0.0458,-0.0457,-0.047,0,0,-0.0457,-0.0457,0,0,0,0,0,0,0,0,-0.0333,-0.0338,-0.0346,-0.0349,-0.0354,-0.043,-0.0403,-0.0431,-0.0477,-0.0436,-0.0475,-0.0474,-0.0434,-0.0436,-0.0466,-0.0469,-0.0468,-0.0457,-0.0457,-0.0457,-0.0457,0,0,0,0,0,0,0,-0.0329,-0.0334,-0.0362,-0.0346,-0.0351,-0.0404,-0.0411,-0.041,-0.0439,-0.0439,-0.0442,-0.0446,-0.0436,-0.0466,-0.0466,-0.0468,-0.0457,-0.0457,-0.0457,-0.0457,-0.0429,-0.0429,0,0,0,0,0,0,-0.03,-0.033,-0.0358,-0.0364,-0.0336,-0.0404,-0.0412,-0.041,-0.0442,-0.0446,-0.0447,-0.0448,-0.0467,-0.0466,-0.0465,-0.043,-0.0457,-0.0457,-0.0457,-0.043,-0.0429,-0.0428,0,0,0,0,0,0,-0.0299,-0.0301,-0.0354,-0.0346,-0.0356,-0.0404,-0.0403,-0.0413,-0.0443,-0.0448,-0.045,-0.0465,-0.0466,-0.0465,-0.0455,-0.0431,-0.0457,-0.0457,-0.0431,-0.043,-0.0429,-0.0391,0,0,0,0,0,0,-0.0297,-0.03,-0.0305,-0.0344,-0.0355,-0.0397,-0.0403,-0.0415,-0.0443,-0.0447,-0.0464,-0.0463,-0.0466,-0.0455,-0.0455,-0.0431,-0.0457,-0.0432,-0.043,-0.0429,-0.0393,-0.0389,-0.0385,0,0,0,0,0,-0.0296,-0.0302,-0.0305,-0.0309,-0.0354,-0.0397,-0.0409,-0.0445,-0.0445,-0.0468,-0.0462,-0.0462,-0.0446,-0.0455,-0.0455,-0.043,-0.0432,-0.0431,-0.0429,-0.0395,-0.039,-0.0385,0,0,0,0,0,0,-0.0302,-0.0309,-0.0313,-0.0324,-0.0357,-0.0404,-0.0428,-0.0445,-0.0467,-0.0451,-0.046,-0.0459,-0.0443,-0.0443,-0.0453,-0.0418,-0.0437,-0.0435,-0.041,-0.0406,-0.0402,-0.0334,-0.0457,0,0,0,0,0,-0.0299,-0.0301,-0.0324,-0.0338,-0.0348,-0.0387,-0.0411,-0.0423,-0.0439,-0.0451,-0.0464,-0.0455,-0.044,-0.0428,-0.043,-0.0411,-0.0372,-0.0393,-0.0389,-0.0385,-0.033,-0.0279,-0.0264,-0.0423,-0.0423,-0.0423,0,0,-0.031,-0.031,-0.0316,-0.0338,-0.0365,-0.0366,-0.0402,-0.0423,-0.0415,-0.0439,-0.0441,-0.045,-0.0436,-0.0417,-0.0408,-0.0409,-0.0322,-0.0384,-0.0381,-0.0326,-0.0275,-0.0259,-0.0245,-0.0422,-0.0423,-0.0423,0,0,-0.0318,-0.0325,-0.0324,-0.0332,-0.0347,-0.0363,-0.0363,-0.0401,-0.0413,-0.0416,-0.0417,-0.04,-0.0413,-0.0382,-0.0365,-0.0336,-0.0313,-0.0351,-0.0261,-0.0213,-0.0199,-0.0185,-0.0122,-0.0103,-0.0336,-0.0336,-0.0336,0,-0.0332,-0.0321,-0.0339,-0.0325,-0.0322,-0.035,-0.0339,-0.0353,-0.0383,-0.0369,-0.0405,-0.0374,-0.0381,-0.0302,-0.029,-0.0321,-0.0286,-0.0284,-0.0205,-0.0191,-0.0178,-0.0116,-0.0096,-0.0334,-0.0335,-0.0335,-0.0335,0,-0.0323,-0.0313,-0.0314,-0.0291,-0.0294,-0.0294,-0.0289,-0.0293,-0.0307,-0.031,-0.0275,-0.0286,-0.0256,-0.0265,-0.0262,-0.0167,-0.017,-0.0218,-0.0212,-0.0159,-0.0098,-0.0078,-0.0331,-0.0332,-0.0333,-0.0333,0,0,-0.0364,-0.0317,-0.0319,-0.0299,-0.0267,-0.0276,-0.0229,-0.021,-0.0183,-0.0193,-0.0151,-0.012,-0.0125,-0.0102,-0.0109,-0.0049,0.0053,-0.0077,-0.0076,-0.0002,0.0185,0.0128,0.0144,0.0014,0.0018,0.0021,0.0188,0,-0.0362,-0.0328,-0.0294,-0.0264,-0.0251,-0.0217,-0.0184,-0.015,-0.0144,-0.0117,-0.0072,-0.0058,-0.0064,-0.0062,0.001,0.0027,0.0112,0.0015,0.0115,0.012,0.0071,0.0168,0.0033,0.0203,0.0208,0.0211,0.0214,0,-0.0366,-0.0341,-0.0309,-0.0247,-0.0238,-0.0217,-0.0158,-0.0126,-0.0053,-0.0047,0.0025,0.0034,0.0143,0.009,0.0241,0.0177,0.0217,0.0238,0.0242,0.0206,0.0102,0.014,0.0251,0.0248,0.0245,0.0243,0.024,0,-0.0407,-0.0352,-0.033,-0.0307,-0.0243,-0.0217,-0.0183,-0.0112,-0.0085,-0.0003,0.0014,0.014,0.0175,0.0267,0.033,0.0286,0.0486,0.0404,0.0415,0.041,0.0392,0.0376,0.0545,0.0545,0.0544,0.0544,0.0543,0,-0.0415,-0.0401,-0.0357,-0.0347,-0.0324,-0.0253,-0.0215,-0.017,-0.0089,-0.0049,0.0037,0.0097,0.022,0.0333,0.039,0.0487,0.0535,0.049,0.0467,0.04,0.0383,0.0406,0.0388,0.055,0.0549,0.0547,0.0546,0,-0.0464,-0.0429,-0.0417,-0.0364,-0.0349,-0.0339,-0.0262,-0.0227,-0.0154,-0.0095,-0.0069,0.0091,0.0226,0.0354,0.0509,0.054,0.0633,0.0655,0.0627,0.0589,0.0517,0.0498,0.0691,0.0691,0.0691,0.0691,0.0691,0,-0.0474,-0.0476,-0.0463,-0.0467,-0.0451,-0.0415,-0.0383,-0.0287,-0.0239,-0.0106,-0.0072,0.0086,0.0184,0.0407,0.0526,0.0676,0.0662,0.0733,0.0611,0.0583,0.0541,0.0523,0.0505,0.069,0.069,0.069,0.069,0,-0.0509,-0.0527,-0.053,-0.0544,-0.0533,-0.0489,-0.0431,-0.0405,-0.0283,-0.0224,-0.0077,0.0049,0.0217,0.0392,0.0528,0.0618,0.0696,0.0731,0.073,0.0615,0.0583,0.0538,0.0521,0.0689,0.069,0.069,0.069,0,-0.0553,-0.0588,-0.061,-0.0616,-0.0598,-0.0555,-0.0515,-0.0418,-0.0345,-0.02,-0.0141,0.004,0.0187,0.0365,0.0486,0.058,0.0559,0.0557,0.0565,0.0567,0.0454,0.039,0.0471,0,0,0,0,0,-0.0586,-0.0636,-0.0663,-0.0661,-0.0636,-0.0622,-0.0533,-0.0474,-0.0368,-0.0288,-0.0213,-0.0067,0.0135,0.0274,0.035,0.0436,0.0556,0.0526,0.0551,0.0686,0.0687,0.0566,0,0,0,0,0,0,-0.0613,-0.0665,-0.0688,-0.0679,-0.0688,-0.0642,-0.0596,-0.0527,-0.044,-0.0335,-0.0203,-0.0104,0.0118,0.0057,0.0325,0.0364,0.0381,0.0646,0.0646,0.0685,0.0686,0.0687,0.0563,0,0,0,0,0]}]]